Wind_Speed
12 9 7 5 7 10 11 11 12 15 16 19 18 18 19 19 21 22 21 19 17 13 9 8 10 12 14 16 17 18 19 17 15 14 13 11 9 8 7 6 4 4 3 2
12 8 6 6 11 11 11 12 14 15 17 17 16 17 18 18 19 21 20 18 16 13 9 6 8 10 13 14 16 17 18 17 15 14 13 11 9 8 7 5 5 4 3 2
12 8 8 11 13 12 12 13 15 16 14 13 15 17 17 16 18 19 18 17 15 12 8 4 4 8 10 12 14 16 16 15 13 13 12 11 9 9 7 6 5 4 3 3
12 11 12 15 15 12 14 15 15 14 13 12 13 17 18 16 17 18 17 15 14 12 8 4 1 4 6 9 12 14 14 14 13 13 12 11 10 9 8 7 6 5 4 3
12 11 14 16 16 15 15 15 14 13 14 14 14 12 15 16 17 18 17 14 13 11 8 4 2 0 3 5 9 12 12 12 12 12 12 11 10 9 8 7 7 6 5 4
15 15 16 17 17 16 14 13 12 14 16 16 12 9 11 15 17 18 15 13 11 9 8 5 2 1 2 4 7 9 10 11 11 11 11 11 11 10 9 8 8 7 6 5
13 15 17 18 16 14 14 13 15 17 18 15 13 7 9 14 16 16 14 12 9 8 6 5 2 1 2 4 5 7 8 10 10 10 11 11 10 9 9 9 8 8 7 6
14 15 14 14 15 15 15 13 16 18 17 17 16 12 8 12 14 14 13 11 9 7 6 4 2 1 1 3 5 6 7 8 9 9 10 10 10 10 10 10 10 9 9 8
16 15 14 16 15 16 16 15 15 18 16 17 17 13 9 12 12 12 12 11 10 7 6 4 3 2 2 3 4 5 7 8 9 10 10 11 11 11 11 11 11 11 10 10
18 18 17 17 16 18 18 17 16 17 18 16 16 15 15 12 12 12 13 12 10 8 6 5 4 4 5 5 6 7 8 9 11 11 11 12 13 13 13 13 12 12 12 12
21 22 21 19 19 18 19 18 17 17 17 17 17 18 17 13 13 13 13 12 10 9 8 7 6 5 6 6 7 8 9 10 11 12 13 13 14 15 15 15 15 15 15 15
25 26 25 24 23 22 22 20 18 19 17 17 16 19 16 13 11 12 13 13 11 10 9 8 8 7 7 8 8 9 10 11 12 13 14 14 15 16 16 17 17 17 17 18
29 30 28 26 26 25 24 23 20 19 17 17 17 19 19 16 10 12 14 13 13 11 11 11 10 9 9 9 10 10 11 12 13 14 15 16 17 18 18 18 19 19 20 20
34 33 32 28 27 27 25 23 21 20 18 18 18 19 20 17 16 16 13 13 15 14 13 14 13 12 11 11 11 11 12 13 14 15 16 18 19 19 20 21 21 22 22 22
35 34 32 30 29 27 24 21 17 18 17 17 19 20 22 21 20 17 17 17 17 16 16 15 15 14 14 13 13 13 14 14 15 16 18 19 20 21 22 23 24 24 24 24
34 33 32 31 28 25 22 19 17 17 17 18 21 23 25 25 21 20 20 19 18 18 18 18 17 16 16 16 16 16 16 16 17 18 19 20 21 22 23 24 24 25 26 26
35 34 33 31 28 27 24 20 19 19 19 20 22 24 28 26 24 21 20 20 20 20 20 20 19 19 19 19 19 18 18 18 18 19 20 21 21 22 24 24 25 26 26 27
35 34 33 31 31 28 23 23 22 21 22 21 23 26 28 27 25 24 23 23 22 22 22 22 22 23 22 21 21 21 22 21 21 22 22 23 23 23 24 24 24 26 27 28
33 33 32 31 30 29 27 27 26 23 24 26 27 27 27 25 25 24 24 23 23 23 24 24 25 25 25 24 24 25 25 25 26 26 25 26 27 28 28 28 27 28 29 29
31 31 29 30 30 28 29 28 26 24 23 23 24 26 27 25 26 25 24 24 23 24 25 26 26 27 27 27 27 28 29 29 29 29 29 30 31 31 31 31 31 31 32 31
30 31 31 30 28 29 29 26 24 24 23 22 23 23 23 25 25 25 24 24 24 24 25 26 28 28 29 29 30 32 32 32 32 33 33 33 33 34 33 32 33 34 35 35
30 30 29 29 30 31 30 25 23 23 23 22 24 24 23 23 24 25 25 25 25 25 25 27 27 28 30 31 31 32 33 33 34 35 35 35 34 34 35 36 37 38 38 39
30 29 28 29 31 30 27 26 25 23 22 22 24 26 26 25 25 25 26 25 26 26 27 27 28 29 30 31 32 32 34 35 35 35 37 37 36 35 35 36 37 38 39 39
23 22 24 26 27 26 26 25 26 25 24 25 26 27 26 26 26 26 26 26 27 28 28 29 29 29 30 31 32 33 33 34 35 36 35 35 36 36 37 38 38 39 39 39
15 19 20 21 21 22 22 24 25 25 25 26 26 26 26 27 27 27 27 27 28 29 29 29 30 31 31 31 32 33 34 34 33 33 33 34 35 35 35 36 38 38 38 39
16 16 18 18 19 21 22 23 24 23 24 25 25 25 26 26 26 27 28 28 29 29 29 30 30 31 32 32 32 33 34 33 33 33 33 34 34 35 35 35 36 37 37 39
Wind_Direction
288 288 292 302 294 279 285 296 299 299 300 306 314 320 322 327 332 334 335 337 336 332 316 270 244 232 225 225 223 224 225 222 225 230 228 218 214 212 211 212 201 189 184 176
279 279 285 273 271 277 287 295 296 298 299 308 315 317 319 326 333 335 337 339 342 339 328 297 246 228 221 221 223 222 223 219 219 222 216 207 205 203 198 191 182 183 186 187
272 264 268 271 270 276 284 290 291 295 301 305 313 310 309 322 334 338 340 342 345 346 337 321 246 223 217 219 222 221 219 213 210 211 208 202 199 194 191 190 188 189 190 188
259 244 246 263 267 271 282 283 288 299 305 296 293 296 309 324 333 338 339 341 346 352 353 355 303 230 215 216 213 210 208 204 206 206 202 200 197 197 199 197 197 198 200 204
252 247 247 254 263 267 272 282 289 298 295 282 277 289 310 328 333 336 339 340 346 357 5 17 28 116 198 200 195 196 197 199 198 201 204 203 202 203 202 203 208 213 217 224
249 240 248 256 258 265 275 287 293 298 297 292 305 302 302 322 331 332 337 341 344 355 8 20 44 102 158 164 175 187 193 194 195 200 203 202 204 205 205 212 216 223 228 236
250 242 241 249 257 262 273 288 296 299 311 322 330 303 295 319 327 330 332 338 343 346 360 18 39 130 155 165 169 177 186 192 195 200 202 205 207 208 213 219 223 229 236 243
245 252 254 256 257 261 269 278 286 295 306 311 306 292 289 310 320 327 328 329 337 342 345 352 6 28 163 182 190 194 194 197 204 208 207 210 216 219 223 227 231 235 242 248
238 249 263 263 258 259 263 267 274 285 292 297 296 300 292 295 308 324 325 323 322 327 328 324 305 275 237 223 213 211 211 211 212 215 218 221 225 228 230 234 240 242 246 252
231 235 243 253 252 255 261 266 268 271 278 288 296 292 288 294 313 322 320 318 315 313 312 309 297 270 254 244 236 232 229 226 225 226 229 230 234 238 239 241 243 248 253 258
238 237 238 243 249 249 257 265 266 269 268 274 291 298 300 308 313 313 314 314 310 303 300 295 292 282 267 258 251 246 242 239 236 236 237 239 242 244 245 246 250 255 260 263
233 237 239 242 247 248 251 256 260 266 268 269 277 286 290 291 292 296 304 306 301 295 294 290 284 281 276 269 261 256 251 247 245 244 244 246 248 249 250 251 256 260 265 268
225 229 236 240 245 245 246 250 250 253 260 266 272 277 280 277 271 281 292 298 295 289 287 287 279 275 274 272 266 260 258 254 252 252 253 255 255 254 253 254 259 263 267 271
223 227 230 234 246 253 255 253 248 245 248 259 262 267 273 274 272 277 283 289 290 283 285 285 280 275 274 271 269 267 265 261 259 259 259 260 260 260 258 258 261 264 268 271
225 230 234 236 243 256 267 268 255 250 254 256 263 266 269 271 272 281 287 287 285 284 283 282 278 275 274 272 271 270 268 265 264 263 264 263 264 264 265 264 264 264 267 272
227 232 235 236 239 249 259 265 260 256 259 256 258 264 267 272 275 278 280 282 282 280 279 278 276 276 277 276 273 271 270 269 267 267 266 266 267 267 267 269 269 270 271 272
227 231 233 236 236 243 251 252 254 258 255 252 252 259 264 270 277 277 277 279 278 277 276 276 276 277 277 278 278 275 273 272 272 272 271 269 272 272 271 271 271 271 273 275
223 226 230 234 237 242 245 245 246 248 253 251 253 258 263 269 272 274 277 278 276 276 274 274 276 276 275 272 275 277 278 274 275 275 275 276 275 275 275 274 273 273 275 275
227 228 229 231 238 245 247 246 245 243 245 248 252 258 266 269 269 271 274 276 275 273 272 273 276 277 277 273 275 277 277 277 278 277 276 278 277 277 277 277 275 275 277 277
232 231 231 233 236 243 248 247 246 244 246 248 253 258 263 268 270 272 274 275 276 275 273 273 274 277 276 275 274 275 276 278 279 278 279 280 281 280 280 281 278 278 279 279
232 233 234 235 239 245 250 251 250 248 250 253 258 263 263 266 271 274 275 277 277 277 275 274 274 274 274 276 277 277 275 275 278 279 279 281 281 280 280 281 280 280 280 280
227 230 233 235 236 241 246 247 244 247 251 253 259 263 268 270 273 275 276 278 279 279 278 277 277 277 276 275 276 276 275 275 277 278 279 280 281 280 280 281 282 282 282 281
231 230 229 232 234 239 244 250 252 254 255 259 265 266 270 273 274 275 276 278 281 281 282 281 280 279 279 277 276 277 276 274 276 278 279 279 279 280 281 284 284 284 284 282
235 232 232 233 238 242 246 252 256 257 263 266 268 268 270 273 275 276 278 280 282 283 283 282 282 281 281 279 278 277 278 278 277 279 279 279 280 281 284 285 285 285 284 282
247 251 244 238 238 245 254 258 256 258 263 266 267 269 273 274 276 277 280 282 284 284 284 284 283 283 283 281 279 280 280 279 280 281 281 282 282 283 285 285 283 284 284 284
249 250 252 251 246 250 256 256 257 261 266 267 269 271 272 273 276 278 281 283 284 284 286 287 287 285 284 283 282 284 283 281 282 282 283 283 284 285 287 287 287 287 288 288
Height
5881 5882 5881 5882 5883 5884 5883 5883 5882 5880 5877 5875 5871 5868 5864 5860 5856 5853 5849 5845 5841 5837 5835 5834 5835 5836 5838 5841 5844 5848 5852 5855 5859 5862 5865 5867 5870 5872 5874 5876 5877 5878 5879 5879
5878 5879 5880 5880 5881 5881 5881 5880 5879 5877 5874 5872 5869 5866 5862 5858 5856 5852 5849 5845 5841 5837 5835 5834 5834 5835 5838 5840 5843 5846 5850 5853 5857 5861 5864 5866 5869 5871 5873 5875 5876 5877 5878 5879
5875 5877 5878 5878 5879 5879 5878 5878 5876 5874 5872 5870 5867 5863 5859 5856 5855 5852 5849 5845 5842 5838 5836 5834 5834 5835 5837 5839 5842 5845 5848 5852 5856 5859 5863 5865 5868 5870 5872 5874 5875 5877 5877 5878
5872 5874 5875 5876 5876 5876 5875 5875 5872 5870 5868 5867 5865 5861 5856 5852 5853 5851 5848 5845 5842 5839 5837 5835 5835 5835 5837 5839 5841 5844 5848 5851 5855 5858 5862 5865 5867 5870 5872 5873 5875 5876 5877 5878
5868 5870 5872 5873 5873 5873 5872 5871 5869 5867 5864 5861 5858 5856 5855 5852 5851 5850 5848 5846 5843 5841 5838 5837 5836 5836 5838 5839 5841 5844 5847 5851 5854 5857 5861 5864 5867 5869 5871 5873 5874 5875 5876 5877
5864 5867 5868 5869 5870 5869 5869 5868 5866 5864 5860 5856 5853 5853 5853 5852 5851 5849 5848 5846 5844 5842 5840 5839 5838 5839 5840 5841 5843 5845 5848 5851 5854 5857 5860 5863 5865 5868 5870 5872 5873 5874 5875 5876
5860 5862 5864 5865 5865 5866 5866 5865 5864 5861 5857 5854 5852 5851 5852 5851 5850 5849 5847 5846 5844 5843 5842 5841 5841 5841 5841 5843 5844 5846 5848 5851 5854 5856 5859 5862 5864 5866 5868 5870 5871 5872 5874 5875
5857 5858 5860 5861 5862 5863 5863 5863 5862 5860 5857 5855 5851 5849 5849 5850 5849 5848 5847 5846 5845 5843 5842 5842 5842 5842 5842 5843 5845 5846 5849 5851 5853 5855 5858 5860 5862 5864 5866 5868 5869 5870 5872 5873
5853 5856 5858 5857 5858 5859 5860 5860 5860 5857 5855 5854 5850 5848 5845 5845 5846 5846 5846 5845 5844 5843 5843 5843 5842 5843 5843 5844 5846 5847 5848 5850 5852 5854 5856 5858 5860 5862 5864 5865 5867 5868 5869 5870
5849 5851 5853 5854 5854 5855 5856 5857 5856 5855 5852 5851 5848 5846 5844 5841 5843 5844 5844 5844 5843 5843 5843 5842 5842 5843 5843 5844 5846 5847 5848 5849 5851 5852 5854 5856 5857 5859 5861 5863 5864 5865 5866 5867
5845 5847 5849 5850 5850 5851 5852 5852 5851 5851 5850 5849 5847 5846 5842 5841 5842 5842 5843 5843 5842 5842 5842 5842 5842 5842 5842 5843 5844 5845 5846 5848 5849 5850 5851 5853 5855 5856 5858 5860 5861 5862 5863 5863
5839 5842 5842 5844 5845 5846 5846 5846 5846 5846 5846 5846 5846 5846 5841 5839 5840 5840 5841 5841 5841 5841 5841 5841 5841 5841 5841 5842 5842 5843 5844 5845 5847 5848 5849 5851 5852 5853 5854 5856 5857 5858 5858 5859
5832 5834 5836 5838 5841 5839 5839 5840 5840 5842 5842 5842 5843 5842 5838 5838 5836 5837 5839 5839 5838 5838 5839 5839 5839 5839 5840 5840 5840 5841 5842 5842 5844 5845 5846 5847 5848 5849 5849 5851 5852 5853 5854 5854
5824 5825 5829 5833 5832 5831 5832 5833 5834 5835 5837 5838 5838 5836 5835 5834 5834 5834 5835 5836 5836 5836 5836 5836 5837 5837 5837 5838 5838 5838 5839 5839 5840 5841 5842 5843 5844 5845 5845 5845 5846 5847 5848 5848
5816 5819 5822 5825 5826 5826 5826 5828 5828 5830 5832 5833 5834 5832 5830 5829 5830 5831 5832 5832 5833 5833 5833 5834 5834 5834 5834 5835 5835 5835 5836 5836 5837 5837 5838 5839 5839 5840 5840 5840 5840 5841 5841 5841
5807 5812 5816 5818 5820 5821 5822 5824 5824 5826 5828 5829 5830 5828 5826 5825 5826 5827 5828 5828 5829 5830 5830 5830 5830 5830 5830 5831 5831 5831 5832 5832 5832 5833 5833 5833 5834 5834 5834 5835 5834 5834 5834 5834
5799 5805 5809 5811 5814 5815 5817 5818 5819 5821 5822 5824 5824 5823 5821 5822 5822 5822 5823 5824 5825 5825 5825 5824 5825 5826 5826 5826 5826 5827 5826 5826 5827 5827 5827 5827 5828 5828 5828 5827 5827 5827 5827 5827
5790 5796 5801 5805 5807 5808 5812 5813 5814 5815 5816 5817 5816 5816 5815 5817 5818 5818 5819 5820 5820 5820 5821 5821 5820 5820 5819 5819 5821 5821 5820 5819 5819 5820 5821 5821 5821 5821 5820 5820 5820 5819 5819 5819
5783 5788 5793 5799 5800 5802 5805 5806 5807 5807 5808 5810 5810 5810 5809 5811 5812 5813 5814 5814 5815 5815 5815 5814 5814 5815 5814 5813 5815 5815 5815 5815 5814 5812 5811 5813 5813 5812 5812 5811 5811 5811 5810 5809
5778 5781 5786 5792 5794 5796 5797 5797 5798 5801 5800 5801 5802 5804 5805 5806 5806 5807 5807 5808 5809 5809 5809 5809 5809 5808 5808 5807 5807 5808 5808 5807 5807 5806 5805 5805 5804 5803 5803 5802 5801 5801 5801 5800
5772 5776 5780 5785 5788 5789 5789 5790 5792 5795 5795 5794 5796 5798 5798 5800 5801 5801 5801 5802 5802 5802 5802 5802 5802 5801 5801 5801 5801 5800 5799 5799 5799 5798 5797 5797 5796 5795 5794 5793 5792 5792 5791 5790
5764 5769 5773 5778 5781 5783 5783 5784 5786 5788 5788 5788 5790 5792 5793 5793 5794 5794 5795 5795 5795 5795 5795 5795 5795 5794 5794 5793 5793 5792 5790 5790 5789 5789 5789 5788 5787 5786 5785 5784 5783 5782 5780 5779
5756 5761 5767 5770 5774 5775 5776 5777 5778 5780 5781 5782 5784 5786 5787 5787 5788 5788 5788 5788 5788 5788 5788 5787 5787 5786 5786 5785 5784 5783 5782 5782 5781 5780 5779 5779 5778 5776 5775 5774 5773 5772 5771 5769
5752 5755 5759 5762 5766 5769 5770 5771 5773 5775 5776 5777 5779 5780 5781 5781 5781 5781 5781 5781 5781 5781 5780 5780 5779 5778 5777 5777 5776 5775 5774 5772 5771 5771 5770 5769 5768 5766 5765 5763 5763 5762 5760 5758
5749 5752 5754 5757 5760 5763 5765 5766 5768 5769 5770 5771 5772 5773 5774 5774 5775 5775 5774 5774 5774 5773 5773 5772 5771 5770 5769 5768 5767 5765 5764 5763 5762 5761 5760 5759 5758 5756 5755 5753 5751 5750 5749 5747
5748 5750 5751 5753 5757 5759 5760 5761 5762 5763 5764 5765 5766 5766 5767 5767 5767 5768 5767 5767 5767 5766 5765 5764 5763 5761 5760 5759 5758 5756 5755 5754 5753 5752 5750 5749 5748 5746 5744 5743 5741 5739 5737 5735